QPF
0.05 0.04 0.06 0.07 0.08 0.10 0.12 0.12 0.12 0.11 0.08 0.07 0.09 0.10 0.08 0.08 0.10 0.10 0.09 0.08 0.05 0.04 0.03 0.03 0.03 0.03 0.03 0.03 0.03 0.03 0.03 0.02 0.02 0.01 0.01 0.01 0.01 0.01 0.01 0.01 0.01 0.02 0.02
0.08 0.07 0.07 0.07 0.07 0.09 0.10 0.12 0.11 0.11 0.11 0.09 0.08 0.08 0.07 0.07 0.08 0.08 0.08 0.07 0.06 0.04 0.04 0.03 0.03 0.02 0.02 0.02 0.02 0.02 0.02 0.02 0.02 0.02 0.01 0.01 0.01 0.01 0.01 0.01 0.01 0.01 0.02
0.06 0.10 0.12 0.10 0.08 0.08 0.09 0.10 0.10 0.09 0.10 0.10 0.07 0.06 0.06 0.06 0.06 0.06 0.06 0.06 0.05 0.05 0.04 0.04 0.03 0.02 0.02 0.02 0.02 0.02 0.02 0.01 0.01 0.02 0.02 0.02 0.02 0.01 0.01 0.01 0.01 0.01 0.01
0.05 0.06 0.11 0.13 0.10 0.08 0.07 0.08 0.09 0.09 0.08 0.07 0.06 0.05 0.05 0.05 0.05 0.05 0.04 0.04 0.03 0.03 0.03 0.03 0.02 0.01 0.01 0.01 0.02 0.01 0.01 0.01 0.01 0.02 0.02 0.01 0.01 0.01 0.01 0.01 0.01 0.01 0.01
0.05 0.06 0.07 0.10 0.12 0.11 0.10 0.08 0.08 0.08 0.07 0.07 0.06 0.05 0.04 0.04 0.04 0.04 0.04 0.04 0.04 0.03 0.03 0.02 0.01 0.01 0.01 0.01 0.01 0.01 0.01 0.01 0.01 0.02 0.02 0.01 0.01 0.01 0.01 0.01 0.01 0.01 0.01
0.07 0.07 0.07 0.08 0.09 0.10 0.11 0.13 0.10 0.07 0.07 0.07 0.07 0.06 0.04 0.03 0.04 0.04 0.05 0.04 0.04 0.03 0.03 0.02 0.02 0.02 0.01 0.01 0.01 0.01 0.01 0.02 0.02 0.02 0.02 0.02 0.01 0.01 0.01 0.01 0.01 0.01 0.01
0.10 0.09 0.07 0.07 0.07 0.07 0.08 0.09 0.11 0.11 0.10 0.09 0.08 0.08 0.06 0.06 0.06 0.05 0.05 0.06 0.06 0.04 0.03 0.03 0.03 0.03 0.03 0.02 0.02 0.03 0.03 0.03 0.03 0.02 0.02 0.01 0.01 0.01 0.01 0.02 0.02 0.02 0.02
0.13 0.13 0.09 0.07 0.06 0.07 0.07 0.08 0.09 0.10 0.11 0.12 0.11 0.10 0.09 0.08 0.08 0.06 0.06 0.06 0.07 0.07 0.06 0.05 0.04 0.04 0.04 0.03 0.03 0.03 0.03 0.03 0.03 0.02 0.02 0.02 0.02 0.02 0.02 0.02 0.02 0.02 0.02
0.13 0.14 0.11 0.10 0.09 0.08 0.09 0.09 0.10 0.11 0.11 0.11 0.10 0.10 0.09 0.09 0.09 0.08 0.07 0.06 0.06 0.06 0.07 0.07 0.06 0.05 0.05 0.05 0.04 0.03 0.02 0.02 0.02 0.03 0.03 0.02 0.02 0.02 0.02 0.02 0.02 0.02 0.02
0.11 0.13 0.12 0.11 0.11 0.10 0.10 0.10 0.11 0.12 0.14 0.12 0.10 0.09 0.08 0.08 0.08 0.08 0.07 0.05 0.06 0.06 0.06 0.06 0.08 0.07 0.06 0.06 0.05 0.04 0.03 0.02 0.02 0.02 0.02 0.02 0.02 0.02 0.02 0.02 0.02 0.03 0.02
0.09 0.11 0.10 0.10 0.10 0.11 0.11 0.11 0.11 0.12 0.14 0.14 0.13 0.10 0.09 0.08 0.07 0.06 0.06 0.05 0.05 0.06 0.06 0.06 0.06 0.08 0.07 0.07 0.06 0.06 0.06 0.04 0.03 0.03 0.02 0.02 0.02 0.02 0.02 0.02 0.02 0.02 0.03
0.08 0.08 0.08 0.09 0.09 0.09 0.09 0.10 0.11 0.11 0.13 0.13 0.13 0.12 0.10 0.09 0.08 0.06 0.06 0.06 0.06 0.05 0.05 0.04 0.04 0.05 0.06 0.05 0.05 0.05 0.05 0.05 0.04 0.03 0.03 0.02 0.02 0.02 0.02 0.02 0.02 0.02 0.02
0.09 0.09 0.09 0.09 0.10 0.09 0.08 0.08 0.09 0.09 0.10 0.11 0.12 0.12 0.11 0.09 0.08 0.07 0.06 0.06 0.05 0.04 0.04 0.04 0.03 0.03 0.03 0.03 0.03 0.03 0.03 0.02 0.02 0.03 0.03 0.02 0.01 0.01 0.01 0.01 0.01 0.02 0.02
0.08 0.09 0.09 0.08 0.09 0.10 0.09 0.09 0.09 0.09 0.10 0.10 0.10 0.09 0.09 0.09 0.07 0.05 0.04 0.04 0.04 0.04 0.04 0.03 0.03 0.02 0.03 0.03 0.03 0.02 0.01 0.01 0.02 0.02 0.02 0.01 0.01 0.01 0.01 0.01 0.02 0.02 0.02
0.07 0.08 0.08 0.08 0.08 0.08 0.08 0.09 0.09 0.09 0.09 0.08 0.07 0.06 0.05 0.05 0.06 0.05 0.04 0.03 0.03 0.03 0.03 0.03 0.02 0.02 0.02 0.02 0.02 0.02 0.01 0.01 0.01 0.01 0.01 0.01 0.01 0.01 0.01 0.01 0.01 0.01 0.02
0.06 0.07 0.07 0.07 0.07 0.07 0.06 0.07 0.07 0.07 0.06 0.05 0.05 0.04 0.04 0.04 0.04 0.04 0.04 0.03 0.03 0.03 0.02 0.02 0.02 0.02 0.01 0.01 0.01 0.01 0.01 0.01 0.01 0.01 0.01 0.01 0.01 0.01 0.01 0.01 0.01 0.01 0.01
0.04 0.05 0.05 0.06 0.06 0.06 0.04 0.03 0.04 0.04 0.04 0.04 0.04 0.04 0.04 0.03 0.03 0.03 0.03 0.03 0.03 0.02 0.02 0.02 0.02 0.01 0.02 0.01 0.01 0.01 0.01 0.01 0.01 0.01 0.01 0.01 0.01 0.01 0.02 0.02 0.02 0.01 0.01
0.03 0.03 0.04 0.04 0.05 0.05 0.04 0.03 0.02 0.02 0.02 0.03 0.03 0.03 0.03 0.03 0.03 0.03 0.03 0.02 0.02 0.02 0.02 0.02 0.02 0.02 0.02 0.01 0.01 0.01 0.01 0.01 0.01 0.01 0.01 0.01 0.01 0.01 0.01 0.01 0.01 0.02 0.02
0.02 0.02 0.03 0.03 0.03 0.04 0.04 0.03 0.02 0.02 0.02 0.02 0.02 0.02 0.03 0.03 0.03 0.03 0.03 0.02 0.02 0.02 0.02 0.02 0.02 0.01 0.01 0.01 0.01 0.01 0.01 0.01 0.01 0.01 0.01 0.01 0.01 0.01 0.01 0.01 0.01 0.01 0.02
0.02 0.02 0.02 0.02 0.02 0.03 0.03 0.03 0.03 0.02 0.02 0.02 0.02 0.02 0.02 0.02 0.02 0.02 0.02 0.02 0.02 0.01 0.01 0.01 0.01 0.01 0.01 0.01 0.01 0.01 0.01 0.01 0.01 0.01 0.01 0.01 0.01 0.01 0.01 0.01 0.01 0.02 0.02
0.01 0.01 0.01 0.02 0.02 0.02 0.03 0.03 0.03 0.02 0.02 0.02 0.02 0.02 0.02 0.02 0.02 0.01 0.01 0.01 0.01 0.01 0.01 0.01 0.01 0.01 0.01 0.01 0.01 0.01 0.01 0.01 0.01 0.01 0.01 0.01 0.01 0.01 0.01 0.01 0.01 0.01 0.02
0.01 0.01 0.01 0.01 0.01 0.02 0.02 0.02 0.02 0.02 0.03 0.03 0.03 0.03 0.02 0.02 0.01 0.01 0.01 0.01 0.01 0.01 0.01 0.01 0.01 0.01 0.01 0.01 0.01 0.01 0.01 0.01 0.01 0.01 0.01 0.01 0.01 0.02 0.02 0.02 0.01 0.01 0.01
0.01 0.01 0.01 0.01 0.01 0.02 0.02 0.02 0.02 0.02 0.03 0.03 0.02 0.02 0.02 0.02 0.01 0.01 0.01 0.01 0.01 0.01 0.01 0.01 0.01 0.01 0.01 0.01 0.01 0.01 0.01 0.01 0.01 0.01 0.02 0.02 0.02 0.01 0.02 0.02 0.02 0.02 0.02
0.01 0.01 0.01 0.01 0.01 0.01 0.01 0.02 0.02 0.02 0.02 0.02 0.02 0.02 0.02 0.02 0.02 0.02 0.01 0.01 0.01 0.01 0.01 0.01 0.01 0.00 0.00 0.01 0.01 0.01 0.01 0.01 0.02 0.02 0.02 0.02 0.02 0.02 0.01 0.02 0.02 0.02 0.02
0.01 0.01 0.01 0.01 0.01 0.01 0.01 0.01 0.02 0.02 0.02 0.02 0.02 0.02 0.02 0.02 0.02 0.01 0.01 0.01 0.01 0.01 0.01 0.01 0.01 0.00 0.00 0.01 0.01 0.01 0.01 0.02 0.02 0.02 0.02 0.02 0.02 0.02 0.02 0.02 0.02 0.02 0.02
0.02 0.02 0.02 0.01 0.01 0.01 0.01 0.01 0.02 0.02 0.02 0.02 0.02 0.02 0.02 0.02 0.02 0.01 0.01 0.01 0.01 0.01 0.01 0.00 0.00 0.00 0.00 0.01 0.01 0.01 0.01 0.01 0.02 0.02 0.02 0.02 0.02 0.02 0.02 0.02 0.02 0.02 0.02
MSLP
1034.72 1034.54 1034.26 1033.90 1033.49 1033.06 1032.64 1032.22 1031.81 1031.38 1030.91 1030.37 1029.73 1028.99 1028.17 1027.28 1026.37 1025.47 1024.62 1023.85 1023.14 1022.50 1021.89 1021.26 1020.59 1019.83 1018.97 1018.00 1016.95 1015.84 1014.70 1013.58 1012.50 1011.49 1010.57 1009.74 1009.00 1008.36 1007.81 1007.34 1006.97 1006.68 1006.47
1034.82 1034.64 1034.37 1034.01 1033.60 1033.16 1032.73 1032.32 1031.91 1031.48 1031.01 1030.47 1029.82 1029.07 1028.23 1027.32 1026.37 1025.43 1024.53 1023.70 1022.93 1022.22 1021.54 1020.86 1020.14 1019.35 1018.48 1017.52 1016.50 1015.43 1014.35 1013.29 1012.27 1011.31 1010.43 1009.62 1008.88 1008.21 1007.62 1007.11 1006.67 1006.32 1006.06
1034.80 1034.63 1034.35 1033.99 1033.58 1033.15 1032.73 1032.31 1031.90 1031.48 1031.02 1030.48 1029.84 1029.09 1028.25 1027.33 1026.37 1025.41 1024.47 1023.58 1022.75 1021.97 1021.21 1020.45 1019.66 1018.82 1017.93 1016.97 1015.97 1014.96 1013.94 1012.96 1012.02 1011.13 1010.29 1009.51 1008.78 1008.10 1007.47 1006.90 1006.40 1005.99 1005.66
1034.69 1034.52 1034.25 1033.90 1033.49 1033.07 1032.65 1032.24 1031.83 1031.41 1030.95 1030.42 1029.78 1029.05 1028.22 1027.31 1026.35 1025.38 1024.42 1023.49 1022.61 1021.75 1020.91 1020.07 1019.20 1018.31 1017.37 1016.41 1015.43 1014.46 1013.52 1012.62 1011.76 1010.94 1010.17 1009.43 1008.71 1008.01 1007.35 1006.73 1006.17 1005.69 1005.31
1034.54 1034.38 1034.12 1033.78 1033.39 1032.98 1032.56 1032.15 1031.75 1031.32 1030.85 1030.31 1029.68 1028.96 1028.14 1027.24 1026.29 1025.32 1024.34 1023.39 1022.45 1021.53 1020.62 1019.70 1018.76 1017.80 1016.83 1015.86 1014.90 1013.97 1013.10 1012.28 1011.50 1010.77 1010.06 1009.37 1008.67 1007.97 1007.28 1006.62 1006.00 1005.47 1005.03
1034.41 1034.27 1034.03 1033.71 1033.34 1032.94 1032.53 1032.12 1031.70 1031.25 1030.76 1030.20 1029.56 1028.82 1028.00 1027.10 1026.16 1025.18 1024.20 1023.22 1022.25 1021.27 1020.29 1019.30 1018.30 1017.29 1016.28 1015.30 1014.36 1013.49 1012.68 1011.94 1011.25 1010.61 1009.98 1009.34 1008.68 1007.99 1007.29 1006.60 1005.95 1005.37 1004.89
1034.34 1034.24 1034.03 1033.74 1033.39 1033.01 1032.59 1032.17 1031.72 1031.23 1030.70 1030.10 1029.41 1028.64 1027.80 1026.89 1025.93 1024.94 1023.95 1022.94 1021.93 1020.91 1019.88 1018.84 1017.78 1016.73 1015.70 1014.72 1013.80 1012.97 1012.23 1011.58 1010.99 1010.44 1009.90 1009.34 1008.74 1008.09 1007.40 1006.71 1006.04 1005.42 1004.92
1034.39 1034.33 1034.16 1033.91 1033.58 1033.19 1032.76 1032.30 1031.81 1031.26 1030.66 1029.99 1029.24 1028.41 1027.52 1026.57 1025.58 1024.57 1023.55 1022.51 1021.47 1020.41 1019.34 1018.25 1017.16 1016.08 1015.04 1014.07 1013.19 1012.41 1011.75 1011.18 1010.70 1010.26 1009.82 1009.35 1008.83 1008.25 1007.61 1006.94 1006.28 1005.66 1005.13
1034.57 1034.55 1034.41 1034.17 1033.85 1033.45 1033.00 1032.49 1031.93 1031.31 1030.63 1029.86 1029.02 1028.12 1027.15 1026.14 1025.11 1024.06 1023.00 1021.93 1020.86 1019.77 1018.66 1017.55 1016.44 1015.35 1014.31 1013.36 1012.52 1011.80 1011.21 1010.74 1010.36 1010.04 1009.72 1009.36 1008.95 1008.45 1007.89 1007.27 1006.64 1006.04 1005.51
1034.84 1034.85 1034.73 1034.49 1034.15 1033.73 1033.23 1032.66 1032.03 1031.32 1030.54 1029.68 1028.74 1027.75 1026.71 1025.63 1024.54 1023.45 1022.35 1021.26 1020.15 1019.04 1017.92 1016.79 1015.66 1014.58 1013.55 1012.62 1011.82 1011.16 1010.65 1010.27 1009.99 1009.78 1009.58 1009.34 1009.04 1008.66 1008.18 1007.64 1007.07 1006.50 1006.00
1035.17 1035.17 1035.03 1034.77 1034.39 1033.92 1033.37 1032.73 1032.02 1031.23 1030.36 1029.41 1028.39 1027.32 1026.21 1025.08 1023.94 1022.81 1021.68 1020.57 1019.45 1018.32 1017.19 1016.06 1014.94 1013.86 1012.85 1011.95 1011.18 1010.57 1010.12 1009.81 1009.62 1009.51 1009.41 1009.29 1009.11 1008.83 1008.46 1008.01 1007.51 1007.00 1006.52
1035.46 1035.42 1035.24 1034.92 1034.50 1033.97 1033.35 1032.65 1031.87 1031.01 1030.07 1029.06 1027.98 1026.86 1025.70 1024.54 1023.38 1022.23 1021.10 1019.98 1018.86 1017.75 1016.62 1015.50 1014.39 1013.33 1012.34 1011.46 1010.71 1010.13 1009.72 1009.46 1009.33 1009.27 1009.26 1009.23 1009.14 1008.96 1008.69 1008.33 1007.91 1007.46 1007.04
1035.64 1035.53 1035.28 1034.90 1034.41 1033.82 1033.15 1032.40 1031.58 1030.68 1029.70 1028.66 1027.57 1026.43 1025.27 1024.11 1022.96 1021.83 1020.71 1019.62 1018.53 1017.44 1016.34 1015.24 1014.16 1013.11 1012.13 1011.26 1010.53 1009.96 1009.55 1009.30 1009.18 1009.16 1009.19 1009.21 1009.18 1009.08 1008.89 1008.61 1008.27 1007.89 1007.52
1035.64 1035.45 1035.12 1034.67 1034.12 1033.49 1032.79 1032.02 1031.18 1030.28 1029.31 1028.29 1027.21 1026.11 1024.98 1023.86 1022.76 1021.68 1020.61 1019.57 1018.53 1017.48 1016.43 1015.37 1014.32 1013.30 1012.34 1011.47 1010.73 1010.14 1009.71 1009.43 1009.29 1009.25 1009.26 1009.29 1009.29 1009.23 1009.09 1008.87 1008.59 1008.28 1007.97
1035.42 1035.15 1034.75 1034.26 1033.67 1033.03 1032.32 1031.57 1030.76 1029.90 1028.98 1028.01 1027.00 1025.96 1024.91 1023.86 1022.84 1021.83 1020.84 1019.87 1018.90 1017.93 1016.94 1015.93 1014.92 1013.93 1012.98 1012.11 1011.35 1010.72 1010.24 1009.90 1009.70 1009.59 1009.56 1009.55 1009.53 1009.46 1009.34 1009.16 1008.93 1008.67 1008.41
1035.01 1034.68 1034.24 1033.73 1033.15 1032.53 1031.86 1031.16 1030.42 1029.63 1028.79 1027.90 1026.98 1026.04 1025.08 1024.13 1023.19 1022.28 1021.39 1020.50 1019.62 1018.72 1017.81 1016.87 1015.91 1014.95 1014.02 1013.14 1012.35 1011.67 1011.12 1010.71 1010.41 1010.22 1010.10 1010.02 1009.95 1009.85 1009.72 1009.54 1009.33 1009.11 1008.89
1034.45 1034.10 1033.67 1033.18 1032.65 1032.09 1031.50 1030.88 1030.23 1029.53 1028.79 1028.00 1027.18 1026.33 1025.47 1024.62 1023.78 1022.96 1022.16 1021.36 1020.57 1019.75 1018.91 1018.04 1017.14 1016.22 1015.31 1014.43 1013.62 1012.90 1012.28 1011.78 1011.39 1011.10 1010.88 1010.71 1010.56 1010.41 1010.24 1010.05 1009.84 1009.63 1009.44
1033.84 1033.51 1033.12 1032.70 1032.25 1031.79 1031.30 1030.78 1030.23 1029.63 1028.99 1028.29 1027.55 1026.79 1026.02 1025.24 1024.49 1023.75 1023.03 1022.31 1021.60 1020.86 1020.09 1019.29 1018.44 1017.57 1016.69 1015.82 1015.00 1014.24 1013.57 1012.99 1012.51 1012.12 1011.81 1011.55 1011.32 1011.11 1010.90 1010.68 1010.46 1010.25 1010.06
1033.24 1032.97 1032.67 1032.35 1032.01 1031.66 1031.28 1030.87 1030.41 1029.90 1029.33 1028.71 1028.03 1027.33 1026.62 1025.90 1025.21 1024.53 1023.87 1023.22 1022.57 1021.90 1021.19 1020.45 1019.66 1018.83 1017.99 1017.14 1016.32 1015.54 1014.83 1014.20 1013.66 1013.20 1012.81 1012.47 1012.18 1011.91 1011.65 1011.40 1011.16 1010.94 1010.74
1032.72 1032.55 1032.35 1032.14 1031.93 1031.69 1031.41 1031.09 1030.71 1030.26 1029.74 1029.16 1028.52 1027.86 1027.17 1026.50 1025.83 1025.19 1024.57 1023.97 1023.36 1022.74 1022.08 1021.39 1020.65 1019.86 1019.06 1018.23 1017.43 1016.65 1015.93 1015.28 1014.70 1014.19 1013.75 1013.37 1013.03 1012.72 1012.43 1012.16 1011.90 1011.65 1011.43
1032.31 1032.24 1032.15 1032.06 1031.95 1031.81 1031.62 1031.36 1031.03 1030.61 1030.11 1029.55 1028.92 1028.27 1027.60 1026.93 1026.29 1025.67 1025.08 1024.50 1023.92 1023.33 1022.71 1022.05 1021.34 1020.60 1019.82 1019.03 1018.24 1017.48 1016.77 1016.12 1015.53 1015.01 1014.56 1014.16 1013.80 1013.47 1013.17 1012.87 1012.60 1012.34 1012.09
1031.98 1032.00 1032.03 1032.04 1032.01 1031.94 1031.80 1031.58 1031.27 1030.86 1030.36 1029.79 1029.16 1028.50 1027.83 1027.18 1026.55 1025.94 1025.37 1024.81 1024.25 1023.67 1023.07 1022.43 1021.74 1021.02 1020.26 1019.50 1018.74 1018.00 1017.31 1016.68 1016.11 1015.60 1015.16 1014.77 1014.41 1014.09 1013.79 1013.50 1013.21 1012.94 1012.68
1031.68 1031.79 1031.90 1031.98 1032.02 1031.99 1031.87 1031.65 1031.33 1030.91 1030.40 1029.82 1029.18 1028.53 1027.87 1027.23 1026.62 1026.04 1025.48 1024.94 1024.39 1023.82 1023.22 1022.58 1021.90 1021.18 1020.43 1019.68 1018.94 1018.22 1017.56 1016.96 1016.42 1015.94 1015.53 1015.17 1014.84 1014.54 1014.25 1013.98 1013.70 1013.42 1013.16
1031.34 1031.53 1031.69 1031.82 1031.89 1031.87 1031.75 1031.53 1031.19 1030.75 1030.22 1029.64 1029.01 1028.37 1027.74 1027.14 1026.56 1026.01 1025.48 1024.95 1024.42 1023.85 1023.25 1022.60 1021.90 1021.17 1020.42 1019.66 1018.93 1018.23 1017.59 1017.02 1016.52 1016.08 1015.71 1015.38 1015.10 1014.82 1014.56 1014.30 1014.04 1013.77 1013.50
1030.92 1031.15 1031.35 1031.50 1031.58 1031.56 1031.43 1031.18 1030.83 1030.38 1029.85 1029.28 1028.68 1028.08 1027.50 1026.94 1026.41 1025.91 1025.42 1024.92 1024.39 1023.83 1023.21 1022.54 1021.82 1021.06 1020.29 1019.52 1018.78 1018.10 1017.47 1016.93 1016.46 1016.06 1015.73 1015.45 1015.20 1014.96 1014.73 1014.49 1014.25 1013.99 1013.72
1030.38 1030.64 1030.86 1031.02 1031.09 1031.06 1030.91 1030.65 1030.29 1029.84 1029.33 1028.79 1028.23 1027.69 1027.17 1026.69 1026.22 1025.78 1025.33 1024.86 1024.34 1023.77 1023.14 1022.44 1021.69 1020.90 1020.10 1019.32 1018.57 1017.89 1017.28 1016.75 1016.31 1015.95 1015.66 1015.41 1015.20 1014.99 1014.78 1014.57 1014.33 1014.08 1013.82
Thickness
5533 5538 5542 5546 5548 5550 5553 5557 5559 5560 5560 5560 5560 5559 5558 5556 5555 5554 5554 5553 5552 5551 5549 5548 5546 5544 5542 5540 5538 5536 5534 5532 5529 5527 5526 5524 5522 5519 5518 5516 5515 5514 5512
5523 5528 5533 5537 5539 5541 5545 5548 5550 5551 5551 5551 5550 5550 5549 5547 5546 5545 5545 5544 5543 5541 5539 5537 5535 5533 5531 5529 5527 5525 5523 5520 5517 5515 5513 5511 5509 5507 5505 5504 5503 5502 5500
5513 5518 5523 5527 5530 5532 5535 5538 5540 5541 5541 5541 5540 5540 5540 5538 5537 5536 5535 5534 5533 5532 5530 5528 5526 5523 5520 5518 5516 5514 5512 5510 5507 5503 5501 5499 5497 5495 5493 5492 5491 5489 5488
5504 5508 5511 5516 5519 5521 5524 5527 5530 5531 5530 5530 5530 5530 5530 5528 5527 5526 5525 5523 5522 5521 5520 5518 5516 5514 5511 5508 5505 5502 5500 5497 5494 5491 5488 5486 5484 5483 5480 5479 5478 5477 5475
5494 5498 5501 5505 5507 5510 5513 5516 5518 5519 5520 5520 5520 5519 5519 5518 5517 5516 5514 5513 5511 5510 5508 5506 5505 5503 5501 5498 5495 5492 5489 5486 5482 5479 5477 5475 5472 5470 5468 5467 5466 5465 5464
5483 5487 5490 5493 5497 5500 5502 5504 5506 5507 5509 5510 5509 5508 5508 5508 5507 5505 5503 5501 5500 5499 5496 5495 5494 5491 5489 5487 5485 5483 5480 5476 5472 5470 5467 5464 5462 5459 5457 5455 5454 5453 5453
5473 5477 5480 5484 5487 5489 5491 5492 5494 5495 5496 5497 5497 5497 5497 5497 5496 5494 5492 5490 5489 5487 5486 5484 5483 5481 5478 5475 5473 5471 5468 5465 5464 5461 5458 5455 5452 5451 5448 5446 5443 5441 5439
5463 5467 5470 5473 5476 5478 5480 5481 5482 5484 5484 5485 5485 5486 5486 5485 5485 5484 5481 5479 5478 5477 5476 5475 5473 5470 5468 5466 5463 5459 5456 5454 5453 5451 5448 5445 5443 5440 5438 5436 5434 5431 5428
5452 5456 5459 5462 5465 5466 5469 5470 5471 5472 5472 5473 5474 5474 5473 5472 5472 5471 5470 5468 5467 5465 5464 5463 5461 5460 5459 5457 5453 5450 5446 5443 5441 5440 5437 5435 5432 5430 5428 5424 5421 5419 5418
5442 5445 5448 5451 5453 5455 5457 5458 5459 5460 5460 5460 5461 5461 5461 5460 5460 5459 5459 5457 5455 5453 5452 5451 5450 5449 5448 5446 5443 5440 5436 5434 5431 5428 5425 5423 5420 5418 5416 5413 5410 5407 5405
5433 5435 5438 5440 5442 5443 5444 5445 5447 5447 5447 5448 5447 5447 5447 5447 5447 5447 5447 5446 5445 5442 5440 5439 5438 5438 5437 5434 5432 5430 5428 5425 5421 5417 5413 5411 5408 5406 5404 5401 5399 5396 5394
5423 5425 5427 5428 5430 5431 5432 5433 5434 5435 5435 5434 5434 5433 5433 5433 5434 5434 5435 5435 5434 5431 5430 5428 5427 5426 5425 5422 5420 5418 5416 5413 5408 5404 5401 5399 5396 5394 5391 5389 5388 5386 5384
5412 5413 5414 5415 5416 5418 5419 5420 5421 5422 5422 5421 5421 5421 5420 5420 5420 5422 5422 5422 5421 5420 5419 5417 5415 5414 5412 5409 5407 5406 5402 5398 5395 5392 5389 5386 5384 5381 5380 5379 5377 5375 5373
5399 5401 5403 5403 5404 5406 5407 5408 5408 5409 5409 5409 5409 5409 5409 5408 5408 5408 5408 5408 5408 5407 5405 5403 5401 5399 5396 5395 5392 5390 5387 5385 5382 5380 5377 5374 5372 5370 5368 5367 5365 5363 5362
5388 5389 5390 5392 5393 5394 5394 5395 5396 5397 5398 5398 5398 5397 5397 5396 5396 5397 5397 5396 5395 5394 5393 5390 5387 5384 5381 5379 5377 5375 5373 5370 5368 5366 5365 5362 5360 5359 5357 5355 5353 5352 5350
5377 5378 5379 5380 5381 5383 5383 5384 5384 5386 5387 5388 5388 5387 5386 5386 5386 5386 5385 5385 5384 5383 5380 5376 5373 5370 5367 5366 5365 5362 5360 5358 5356 5355 5353 5351 5349 5347 5345 5344 5342 5340 5339
5368 5369 5369 5370 5371 5372 5372 5373 5373 5373 5374 5375 5376 5376 5376 5375 5375 5374 5374 5373 5371 5370 5366 5363 5360 5358 5355 5353 5351 5349 5347 5346 5344 5343 5341 5339 5337 5336 5334 5332 5331 5329 5328
5358 5359 5360 5360 5360 5360 5360 5361 5361 5362 5362 5361 5362 5364 5364 5364 5363 5362 5361 5360 5357 5355 5353 5350 5348 5345 5343 5341 5339 5337 5335 5334 5332 5331 5330 5328 5326 5324 5323 5321 5320 5319 5318
5349 5349 5349 5349 5349 5349 5349 5349 5349 5350 5350 5350 5349 5350 5351 5351 5350 5349 5348 5346 5344 5342 5340 5338 5336 5334 5332 5330 5328 5326 5324 5323 5321 5319 5318 5316 5315 5313 5312 5311 5310 5311 5309
5341 5341 5341 5340 5339 5339 5338 5339 5339 5339 5339 5339 5339 5338 5338 5338 5337 5336 5335 5334 5332 5330 5328 5326 5324 5323 5321 5319 5318 5316 5314 5312 5310 5309 5308 5306 5305 5304 5303 5302 5301 5301 5300
5332 5332 5332 5330 5330 5329 5329 5328 5328 5328 5328 5328 5328 5328 5329 5327 5326 5325 5323 5322 5321 5319 5317 5315 5313 5312 5310 5309 5308 5306 5304 5303 5301 5300 5298 5297 5296 5295 5294 5294 5293 5292 5292
5323 5323 5322 5321 5321 5320 5320 5319 5319 5319 5319 5318 5318 5318 5319 5317 5315 5314 5312 5311 5310 5308 5307 5305 5303 5302 5300 5299 5298 5297 5295 5294 5292 5291 5290 5289 5288 5287 5286 5286 5285 5284 5283
5315 5314 5314 5313 5313 5313 5312 5311 5310 5310 5310 5309 5308 5308 5307 5306 5305 5303 5302 5301 5299 5298 5296 5295 5294 5292 5291 5290 5289 5288 5287 5286 5285 5283 5282 5281 5280 5279 5279 5278 5277 5276 5275
5308 5307 5306 5305 5304 5303 5303 5302 5302 5302 5301 5300 5299 5298 5297 5296 5294 5293 5292 5291 5289 5288 5287 5285 5284 5284 5282 5281 5281 5280 5279 5278 5277 5276 5275 5274 5273 5272 5272 5271 5270 5269 5268
5301 5300 5298 5297 5296 5295 5295 5294 5294 5293 5292 5292 5291 5289 5288 5287 5285 5284 5283 5281 5280 5279 5277 5277 5276 5275 5275 5274 5273 5273 5272 5271 5270 5269 5268 5267 5266 5265 5265 5264 5263 5262 5262
5294 5293 5291 5290 5289 5288 5287 5286 5286 5285 5284 5283 5282 5280 5279 5278 5277 5275 5274 5272 5271 5270 5269 5268 5268 5267 5267 5266 5266 5266 5265 5265 5264 5263 5262 5261 5260 5259 5258 5258 5257 5257 5256